Dupage Airport Chicago,West Chicago US
ICAO: KDPA
IATA: DPA
Category: Medium
Scheduled Services: No

Elevation: 759 ft
TransAlt. 18000 ft.

Airport Communications:
CHICAGO APP/DEP:133.5
ASOS:124.8
ATIS:124.8
CLNC DEL:119.75
GND:121.8
KANKAKEE RDO:122.3
TWR:120.9
UNICOM:122.95

KDPA Zoom In..

Runways:

(A) RW 02L length 7571 ft width 100 ft
ILS 111.70 / hdg 15

(B) RW 02R length 6443 ft width 100 ft
---- / hdg 15

(C) RW 10 length 4750 ft width 75 ft
ILS 109.50 / hdg 97

(D) RW 15 length 3399 ft width 100 ft
---- / hdg 149

(E) RW 20L length 6443 ft width 100 ft
---- / hdg 195

(F) RW 20R length 7571 ft width 100 ft
---- / hdg 195

(G) RW 28 length 4750 ft width 75 ft
---- / hdg 277

(H) RW 33 length 3399 ft width 100 ft
---- / hdg 329

Location; KDPA
Day. 20 / Time. 20.19 Zulu
* Altimeter: 29.65
* Temperature: 22° c. 71.6°f.
* Wind from: 290° Speed 08 kn.
Dewpoint: 21° c.
Visibility: 10 Statute Miles.
Clouds: Scattered 1800 ft.
Clouds: Broken 2200 ft.
Clouds: Overcast 4000 ft.

KDPA 202019Z 29008KT 10SM SCT018 BKN022 OVC040 22/21 A2965 RMK AO2 T02220206


Wind From 290°
Speed 08 kn.

 
 
jpsmedia.com for Web Design worldairports.se 2018   terms of use